Tracking 18816 objects as of 18-October-2017
HD Live streaming from Space Station
objects crossing your sky now

UNAMSAT

Track UNAMSAT now!
10-day predictions
UNAMSAT is classified as:


NORAD ID: 24305
Int'l Code: 1996-052B
Perigee: 969.9 km
Apogee: 1,016.3 km
Inclination: 82.9 °
Period: 104.8 minutes
Semi major axis: 7364 km
RCS: 0.174 m2 (medium)
Launch date: September 5, 1996
Source: Mexico (MEX)
Launch site: PLESETSK MISSILE AND SPACE COMPLEX (PKMTR)
aabbcc
Your satellite tracking list
Your tracking list is empty





NASA's NSSDC Master Catalog

Two Line Element Set (TLE):
1 24305U 96052B   17290.45412793 +.00000034 +00000-0 +20339-4 0  9998
2 24305 082.9344 262.0847 0031503 063.6894 296.7491 13.73789549058303
Source of the keplerian elements: AFSPC